WMT7400 LUKK-LROP

Flight info

Callsign WMT7400
Flight time 0h 43m
Altitude 30000
Route LIPTA T34 KODRU DCT DENAK
Aircraft A321/M-SDE3FGHIRWY/LB1

Departure

Time 2026-05-04 13:13
Airport Chişinău International Airport (LUKK)

Arrival

Time 2026-05-04 13:56
Airport Bucharest Henri Coandă International Airport (LROP)
Time Latitude Longitude Altitude Speed Heading
2026-05-04 12:51 46.93239 28.93541 409 ft 0 kts 276°
2026-05-04 12:56 46.93239 28.93542 409 ft 0 kts 276°
2026-05-04 13:06 46.93242 28.93498 409 ft 9 kts 276°
2026-05-04 13:07 46.93204 28.93454 409 ft 9 kts 193°
2026-05-04 13:07 46.93155 28.93384 411 ft 16 kts 269°
2026-05-04 13:07 46.93173 28.93168 410 ft 24 kts 277°
2026-05-04 13:07 46.93196 28.92918 409 ft 27 kts 277°
2026-05-04 13:08 46.93220 28.92637 407 ft 29 kts 277°
2026-05-04 13:08 46.93243 28.92348 404 ft 27 kts 277°
2026-05-04 13:08 46.93263 28.92111 407 ft 19 kts 276°
2026-05-04 13:08 46.93206 28.92023 408 ft 13 kts 198°
2026-05-04 13:09 46.93113 28.91993 408 ft 15 kts 188°
2026-05-04 13:09 46.93004 28.91990 406 ft 17 kts 178°
2026-05-04 13:09 46.92877 28.91996 408 ft 19 kts 178°
2026-05-04 13:09 46.92850 28.91998 408 ft 0 kts 178°
2026-05-04 13:10 46.92849 28.91998 408 ft 1 kts 178°
2026-05-04 13:10 46.92831 28.91999 409 ft 5 kts 178°
2026-05-04 13:11 46.92778 28.91993 409 ft 9 kts 205°
2026-05-04 13:11 46.92755 28.91868 408 ft 18 kts 267°
2026-05-04 13:11 46.92751 28.91669 407 ft 20 kts 269°
2026-05-04 13:11 46.92746 28.91455 408 ft 22 kts 268°
2026-05-04 13:12 46.92741 28.91221 407 ft 24 kts 268°
2026-05-04 13:12 46.92737 28.90990 409 ft 19 kts 268°
2026-05-04 13:12 46.92762 28.90819 408 ft 9 kts 291°
2026-05-04 13:12 46.92744 28.90774 408 ft 4 kts 157°
2026-05-04 13:13 46.92735 28.90898 409 ft 33 kts 88°
2026-05-04 13:13 46.92751 28.91681 408 ft 117 kts 88°
2026-05-04 13:13 46.92781 28.93162 549 ft 164 kts 89°
2026-05-04 13:13 46.92802 28.94844 1285 ft 165 kts 85°
2026-05-04 13:14 46.92854 28.96523 1907 ft 166 kts 81°
2026-05-04 13:14 46.92895 28.97162 2066 ft 158 kts 82°
2026-05-04 13:14 46.92916 28.97462 2134 ft 150 kts 78°
2026-05-04 13:14 46.93061 28.98825 2324 ft 132 kts 82°
2026-05-04 13:15 46.93108 29.00299 2530 ft 156 kts 86°
2026-05-04 13:15 46.93097 29.01975 3085 ft 173 kts 88°
2026-05-04 13:15 46.93087 29.03197 3505 ft 181 kts 86°
2026-05-04 13:15 46.93092 29.05115 3931 ft 202 kts 86°
2026-05-04 13:16 46.93113 29.07298 4343 ft 228 kts 86°
2026-05-04 13:16 46.93140 29.09735 4872 ft 252 kts 86°
2026-05-04 13:16 46.93172 29.12361 5651 ft 261 kts 86°
2026-05-04 13:16 46.93200 29.15012 6750 ft 259 kts 87°
2026-05-04 13:17 46.92918 29.17624 7741 ft 266 kts 107°
2026-05-04 13:17 46.91863 29.19948 8646 ft 282 kts 133°
2026-05-04 13:17 46.90113 29.21300 9519 ft 300 kts 163°
2026-05-04 13:17 46.87993 29.21210 10356 ft 316 kts 194°
2026-05-04 13:18 46.86201 29.19703 11123 ft 325 kts 224°
2026-05-04 13:18 46.84818 29.17066 11648 ft 342 kts 239°
2026-05-04 13:18 46.83587 29.13954 11952 ft 365 kts 243°
2026-05-04 13:18 46.82273 29.10628 12453 ft 380 kts 233°
2026-05-04 13:19 46.80521 29.07748 13180 ft 387 kts 227°
2026-05-04 13:19 46.78657 29.04821 13971 ft 392 kts 227°
2026-05-04 13:19 46.76807 29.01937 14697 ft 396 kts 227°
2026-05-04 13:19 46.74896 28.98963 15467 ft 399 kts 227°
2026-05-04 13:20 46.73012 28.96030 16229 ft 403 kts 227°
2026-05-04 13:20 46.71091 28.93035 16996 ft 407 kts 227°
2026-05-04 13:20 46.69150 28.90005 17748 ft 411 kts 227°
2026-05-04 13:20 46.67192 28.86951 18479 ft 415 kts 227°
2026-05-04 13:21 46.65222 28.83876 19179 ft 417 kts 227°
2026-05-04 13:21 46.63241 28.80789 19906 ft 418 kts 227°
2026-05-04 13:21 46.61249 28.77690 20688 ft 419 kts 227°
2026-05-04 13:21 46.59234 28.74560 21457 ft 419 kts 228°
2026-05-04 13:22 46.57261 28.71505 22200 ft 420 kts 228°
2026-05-04 13:22 46.55230 28.68368 22935 ft 421 kts 228°
2026-05-04 13:22 46.53255 28.65310 23622 ft 421 kts 229°
2026-05-04 13:22 46.51233 28.62142 24192 ft 423 kts 229°
2026-05-04 13:23 46.49264 28.59035 24714 ft 425 kts 229°
2026-05-04 13:23 46.47255 28.55858 25173 ft 429 kts 228°
2026-05-04 13:23 46.45220 28.52675 25673 ft 431 kts 228°
2026-05-04 13:23 46.43174 28.49469 26125 ft 435 kts 228°
2026-05-04 13:24 46.41122 28.46244 26606 ft 437 kts 229°
2026-05-04 13:24 46.39056 28.42999 27100 ft 439 kts 228°
2026-05-04 13:24 46.36976 28.39744 27591 ft 441 kts 227°
2026-05-04 13:25 46.32798 28.33241 28744 ft 441 kts 227°
2026-05-04 13:25 46.30688 28.29977 29129 ft 445 kts 227°
2026-05-04 13:25 46.28556 28.26697 29549 ft 448 kts 227°
2026-05-04 13:25 46.26416 28.23415 29936 ft 451 kts 227°
2026-05-04 13:26 46.22181 28.16926 30027 ft 435 kts 227°
2026-05-04 13:26 46.18049 28.10621 30026 ft 431 kts 226°
2026-05-04 13:27 46.13833 28.04431 30027 ft 434 kts 225°
2026-05-04 13:27 46.09564 27.98268 30027 ft 434 kts 225°
2026-05-04 13:28 46.05304 27.92097 30026 ft 434 kts 225°
2026-05-04 13:28 46.01054 27.85930 30022 ft 434 kts 224°
2026-05-04 13:29 45.96795 27.79753 30011 ft 435 kts 224°
2026-05-04 13:29 45.92521 27.73569 30008 ft 436 kts 225°
2026-05-04 13:30 45.88240 27.67401 30004 ft 437 kts 224°
2026-05-04 13:30 45.83942 27.61218 30007 ft 437 kts 224°
2026-05-04 13:31 45.81840 27.58201 29641 ft 438 kts 224°
2026-05-04 13:31 45.79678 27.55102 30136 ft 438 kts 225°
2026-05-04 13:31 45.77522 27.52015 30011 ft 437 kts 224°
2026-05-04 13:31 45.77183 27.51530 30008 ft 436 kts 224°
2026-05-04 13:33 45.74526 27.47568 30026 ft 435 kts 224°
2026-05-04 13:34 45.70215 27.41444 30011 ft 437 kts 223°
2026-05-04 13:34 45.65844 27.35349 29838 ft 444 kts 223°
2026-05-04 13:35 45.63626 27.32228 28808 ft 450 kts 224°
2026-05-04 13:35 45.59241 27.25992 27615 ft 440 kts 225°
2026-05-04 13:35 45.57082 27.22919 27029 ft 436 kts 225°
2026-05-04 13:36 45.55148 27.20171 26482 ft 432 kts 225°
2026-05-04 13:37 45.53721 27.18133 26097 ft 429 kts 226°
2026-05-04 13:37 45.51614 27.15136 25477 ft 427 kts 225°
2026-05-04 13:37 45.50222 27.13170 25095 ft 425 kts 225°
2026-05-04 13:38 45.47417 27.09229 24319 ft 422 kts 226°
2026-05-04 13:38 45.45331 27.06301 23745 ft 420 kts 226°
2026-05-04 13:38 45.43254 27.03385 23147 ft 418 kts 226°
2026-05-04 13:38 45.41190 27.00487 22608 ft 414 kts 226°
2026-05-04 13:39 45.39147 26.97623 22092 ft 411 kts 225°
2026-05-04 13:39 45.37114 26.94776 21588 ft 408 kts 225°
2026-05-04 13:39 45.35101 26.91955 21094 ft 405 kts 225°
2026-05-04 13:39 45.33101 26.89155 20589 ft 402 kts 225°
2026-05-04 13:40 45.31116 26.86382 20085 ft 399 kts 225°
2026-05-04 13:40 45.29139 26.83622 19565 ft 397 kts 225°
2026-05-04 13:40 45.27172 26.80879 19044 ft 395 kts 225°
2026-05-04 13:40 45.25213 26.78149 18488 ft 394 kts 224°
2026-05-04 13:41 45.23258 26.75431 17918 ft 393 kts 224°
2026-05-04 13:41 45.21309 26.72724 17340 ft 391 kts 224°
2026-05-04 13:41 45.19399 26.70070 16801 ft 389 kts 224°
2026-05-04 13:42 45.15528 26.64692 15671 ft 386 kts 224°
2026-05-04 13:42 45.13614 26.62040 15104 ft 384 kts 224°
2026-05-04 13:42 45.11702 26.59394 14489 ft 385 kts 224°
2026-05-04 13:42 45.09790 26.56751 13918 ft 384 kts 224°
2026-05-04 13:43 45.07900 26.54140 13305 ft 383 kts 225°
2026-05-04 13:43 45.05970 26.51481 12720 ft 381 kts 225°
2026-05-04 13:43 45.04082 26.48884 12154 ft 378 kts 225°
2026-05-04 13:43 45.02229 26.46340 11594 ft 375 kts 225°
2026-05-04 13:44 45.00374 26.43767 11023 ft 372 kts 228°
2026-05-04 13:44 44.98744 26.40980 10717 ft 363 kts 234°
2026-05-04 13:44 44.97167 26.38194 10567 ft 361 kts 233°
2026-05-04 13:44 44.95617 26.35488 10425 ft 347 kts 233°
2026-05-04 13:45 44.94123 26.32898 10303 ft 333 kts 233°
2026-05-04 13:45 44.92685 26.30414 10130 ft 322 kts 234°
2026-05-04 13:45 44.91277 26.27979 9888 ft 316 kts 234°
2026-05-04 13:45 44.89900 26.25590 9812 ft 314 kts 234°
2026-05-04 13:46 44.88520 26.23187 9677 ft 316 kts 234°
2026-05-04 13:46 44.87139 26.20783 9544 ft 315 kts 234°
2026-05-04 13:46 44.85760 26.18386 9387 ft 314 kts 234°
2026-05-04 13:46 44.84381 26.15994 9223 ft 314 kts 234°
2026-05-04 13:47 44.83007 26.13617 8992 ft 312 kts 233°
2026-05-04 13:47 44.81634 26.11246 8777 ft 312 kts 234°
2026-05-04 13:47 44.80254 26.08866 8073 ft 314 kts 234°
2026-05-04 13:47 44.78885 26.06506 7520 ft 309 kts 233°
2026-05-04 13:48 44.77530 26.04174 6951 ft 306 kts 233°
2026-05-04 13:48 44.76188 26.01863 6390 ft 303 kts 234°
2026-05-04 13:48 44.74865 25.99582 5826 ft 299 kts 233°
2026-05-04 13:48 44.73559 25.97335 5303 ft 294 kts 233°
2026-05-04 13:49 44.72273 25.95125 4956 ft 289 kts 233°
2026-05-04 13:49 44.71010 25.92955 4699 ft 284 kts 233°
2026-05-04 13:49 44.69767 25.90825 4503 ft 280 kts 232°
2026-05-04 13:49 44.68544 25.88732 4259 ft 275 kts 232°
2026-05-04 13:50 44.67337 25.86664 4001 ft 271 kts 232°
2026-05-04 13:50 44.66167 25.84656 3904 ft 260 kts 232°
2026-05-04 13:50 44.64953 25.82854 3797 ft 249 kts 219°
2026-05-04 13:50 44.63462 25.81717 3693 ft 240 kts 200°
2026-05-04 13:51 44.61825 25.81299 3390 ft 242 kts 182°
2026-05-04 13:51 44.60132 25.81557 2932 ft 245 kts 172°
2026-05-04 13:51 44.58488 25.81967 2750 ft 237 kts 165°
2026-05-04 13:51 44.57005 25.82961 2635 ft 236 kts 146°
2026-05-04 13:52 44.55375 25.85821 2493 ft 221 kts 113°
2026-05-04 13:52 44.55032 25.87651 2507 ft 219 kts 97°
2026-05-04 13:52 44.55037 25.89756 2497 ft 214 kts 83°
2026-05-04 13:53 44.55222 25.91778 2355 ft 206 kts 82°
2026-05-04 13:53 44.55384 25.93682 2141 ft 184 kts 83°
2026-05-04 13:53 44.55513 25.95321 1924 ft 156 kts 83°
2026-05-04 13:54 44.55740 25.98195 1568 ft 142 kts 85°
2026-05-04 13:54 44.55855 25.99584 1392 ft 143 kts 83°
2026-05-04 13:54 44.56046 26.02347 1040 ft 142 kts 83°
2026-05-04 13:55 44.56157 26.03710 854 ft 141 kts 85°
2026-05-04 13:55 44.56376 26.06417 536 ft 139 kts 83°
2026-05-04 13:55 44.56475 26.07767 370 ft 140 kts 84°
2026-05-04 13:56 44.56565 26.09017 322 ft 110 kts 83°
2026-05-04 13:56 44.56635 26.09914 323 ft 77 kts 84°
2026-05-04 13:56 44.56723 26.10740 322 ft 15 kts 30°
2026-05-04 13:57 44.56805 26.10766 322 ft 0 kts 11°